Location: Rio Tanui
(39.9167°N, 8.5167°E)
Time: 01:58:21
(UTC+00:00)

PSLV R/B - Pass Details

Date: 08 February 2023
Orbit: 490 x 557 km, 97.8° (Epoch: 01 April)

Event Time Altitude Azimuth Distance (km) Brightness Sun altitude
Rises 18:18:04 0° 171° (S) 2,564 7.2 -16.7°
Reaches altitude 10° 18:20:06 10° 173° (S) 1,693 6.3 -17.1°
Maximum altitude 18:23:44 73° 258° (WSW) 531 3.8 -17.8°
Drops below altitude 10° 18:27:29 10° 344° (NNW) 1,741 6.5 -18.5°
Sets 18:29:37 0° 346° (NNW) 2,645 7.4 -18.9°
